Lid_Strength_Index
6 6 6 6 6 6 5 6 5 5 4 4 4 3 4 4 5 5 5 5 5 4
6 6 7 7 6 6 7 6 7 6 6 6 5 5 5 5 5 4 5 5 5 4
7 7 7 8 8 8 8 8 8 8 8 8 7 7 7 7 7 7 6 6 6 6
8 8 9 9 9 9 9 9 9 9 9 8 9 9 9 8 8 9 9 8 9 8
9 9 10 9 9 9 10 9 9 9 8 8 9 9 9 9 9 10 10 10 10 9
10 10 10 10 10 10 10 10 9 9 9 9 8 9 9 9 10 10 10 10 10 10
11 10 11 11 11 10 10 10 9 9 9 9 9 8 8 9 10 10 10 9 9 9
11 11 11 11 11 11 10 10 9 9 9 9 10 9 9 9 10 10 11 10 9 9
11 11 11 11 11 11 10 10 10 10 10 11 10 9 9 10 11 11 10 10 10 9
11 11 11 11 11 11 11 11 11 11 11 11 10 9 9 9 10 10 11 10 10 9
11 11 11 11 11 11 11 12 12 12 11 11 10 9 9 9 11 11 10 10 10 10
11 11 11 11 12 12 12 12 12 11 11 12 11 9 9 9 11 11 12 10 10 9
11 11 11 11 12 11 12 12 11 11 11 10 11 9 9 9 10 11 9 9 8 7
11 11 11 12 11 12 12 12 12 12 12 11 10 10 8 6 7 7 8 8 8 7